Home > Weather > Aix-en-Provence > Past weeks

Flag for France Past Weather in Aix-en-Provence, Provence-Alpes-Côte d'Azur, France — Yesterday and Last 2 Weeks

Now
66 °F

Partly sunny.


Feels Like: 66 °F
Forecast: 53 / 70 °F
Wind: 5 mph from North

Location: Marseille / Marignane

Current Time: May 29, 2016 at 11:49:36 AM

Latest Report: May 29, 2016 at 11:30 AM


Visibility: N/A

Pressure: 29.80 "Hg

Humidity: 78%

Dew Point: 59 °F

Location of Aix-en-ProvenceLocation

Past Weather in Aix-en-Provence — Graph

°F

Aix-en-Provence Temperature Yesterday

Maximum temperature yesterday: 73 °F (at 12:00 PM)
Minimum temperature yesterday: 59 °F (at 3:00 AM)
Average temperature yesterday: 67 °F

High & Low Weather Summary for the Past Weeks

 TemperatureHumidityPressure
High79 °F (May 26, 2:00 PM)94% (May 18, 10:00 PM)30.09 "Hg (May 18, 10:00 PM)
Low52 °F (May 16, 5:00 AM)23% (May 15, 5:00 PM)29.68 "Hg (May 14, 10:00 AM)
Average65 °F58%29.97 "Hg
* Reported May 14 10:00 AM — May 29 10:30 AM, Aix-en-Provence, Weather by CustomWeather, © 2016

Note: Actual official high and low records may vary slightly from our data, if they occured in-between our weather recording intervals... More about our weather records

Advertising

Aix-en-Provence Weather History for the Previous 24 Hours

Scroll right to see more
 ConditionsComfort  
Time TempWeatherWind HumidityBarometerVisibility
10:30 AM
Sun, May 29
63 °FPartly sunny.10 mph83%29.80 "HgN/A
10:00 AM63 °FPartly sunny.10 mph83%29.77 "HgN/A
9:30 AM63 °FPartly sunny.13 mph88%29.77 "HgN/A
9:00 AM61 °FPartly sunny.15 mph94%29.77 "HgN/A
8:30 AM63 °FPartly sunny.17 mph88%29.74 "HgN/A
8:00 AM64 °FPartly sunny.7 mph94%29.74 "HgN/A
7:30 AM64 °FOvercast.8 mph94%29.74 "HgN/A
7:00 AM64 °FMostly cloudy.10 mph94%29.74 "HgN/A
6:30 AM64 °FLight rain. Mostly cloudy.12 mph88%29.74 "Hg4 mi
6:00 AM64 °FPartly cloudy.9 mph94%29.77 "Hg5 mi
5:30 AM64 °FLight rain. Partly cloudy.3 mph88%29.74 "HgN/A
5:00 AM64 °FPartly cloudy.5 mph88%29.74 "HgN/A
4:30 AM64 °FPassing clouds.12 mph88%29.74 "HgN/A
4:00 AM64 °FPartly cloudy.9 mph88%29.77 "HgN/A
3:30 AM64 °FPartly cloudy.10 mph88%29.80 "HgN/A
3:00 AM64 °FMostly cloudy.14 mph94%29.80 "HgN/A
2:30 AM64 °FMostly cloudy.6 mph94%29.80 "HgN/A
2:00 AM64 °FMostly cloudy.8 mph88%29.83 "HgN/A
1:30 AM64 °FLight rain. Partly cloudy.10 mph88%29.83 "Hg5 mi
1:00 AM64 °FPassing clouds.12 mph88%29.86 "HgN/A
12:30 AM66 °FPassing clouds.7 mph83%29.83 "HgN/A
12:00 AM66 °FPartly cloudy.8 mph83%29.83 "HgN/A
11:30 PM
Sat, May 28
66 °FPassing clouds.2 mph78%29.80 "HgN/A
11:00 PM66 °FPassing clouds.7 mph78%29.80 "HgN/A
10:30 PM66 °FPartly cloudy.13 mph78%29.83 "HgN/A
10:00 PM66 °FMore clouds than sun.14 mph78%29.89 "HgN/A
9:30 PM66 °FMore clouds than sun.13 mph78%29.89 "HgN/A
9:00 PM68 °FMore clouds than sun.13 mph73%29.86 "HgN/A
8:30 PM68 °FPartly sunny.12 mph73%29.86 "HgN/A
8:00 PM68 °FScattered clouds.16 mph73%29.86 "HgN/A
7:30 PM70 °FSunny.15 mph69%29.86 "Hg10 mi
7:00 PM70 °FSunny.13 mph64%29.86 "Hg10 mi
6:30 PM70 °FSunny.14 mph69%29.86 "Hg10 mi
6:00 PM70 °FPassing clouds.14 mph69%29.89 "HgN/A
5:30 PM72 °FSunny.18 mph61%29.89 "Hg10 mi
5:00 PM72 °FSunny.17 mph61%29.89 "Hg10 mi
4:30 PM72 °FBroken clouds.17 mph61%29.89 "HgN/A
4:00 PM70 °FBroken clouds.16 mph69%29.89 "HgN/A
3:30 PM72 °FBroken clouds.13 mph65%29.89 "HgN/A
3:00 PM72 °FBroken clouds.18 mph65%29.89 "HgN/A
2:30 PM70 °FPartly sunny.13 mph69%29.89 "HgN/A
2:00 PM72 °FPartly sunny.12 mph69%29.89 "HgN/A
1:30 PM72 °FPartly sunny.12 mph69%29.89 "HgN/A
1:00 PM72 °FPartly sunny.14 mph69%29.92 "HgN/A
12:30 PM72 °FPartly sunny.13 mph65%29.92 "HgN/A
12:00 PM73 °FPartly sunny.14 mph61%29.92 "HgN/A
11:30 AM72 °FSunny.7 mph61%29.92 "Hg10 mi
11:00 AM72 °FSunny.6 mph61%29.92 "Hg10 mi
Weather by CustomWeather, © 2016

See weather overviewHow to use our weather pages